[[{"header":{"parameterUnit":"m.s-1","parameterCategory":2,"la1":30.2991,"la2":30.254,"lo1":-89.0895,"lo2":-89.0444,"dy":0.0017,"dx":0.0017,"nx":28,"ny":28,"refTime":"2023-10-17T21:00:00:Z","depth":"0","parameterNumber":2,"parameterNumberName":"U-component_of_CURRENTS"},"data":[0,0,0,0,0,0,0,0,0,0,0,0,0,0,0,0,0,0,0,0,0,0,0,0,0,0,0,0,0,0,0,0,0,0,0,0,0,0,0,0,0,0,0,0,0,0,0,0,0,0,0,0,0,0,0,0,0,0,-0.3398,-0.34,0,-0.3488,-0.3488,-0.3488,-0.3418,-0.3417,-0.3415,-0.3413,-0.3316,-0.3315,-0.3314,0,0,0,0,0,0,0,0,0,0,0,0,0,-0.3237,-0.3239,-0.3398,-0.34,-0.3403,-0.3488,-0.3488,-0.3488,-0.3419,-0.3417,-0.3415,-0.3413,-0.3317,-0.3315,-0.3314,0,0,0,0,0,0,0,0,0,0,0,0,0,-0.3301,-0.3239,-0.3397,-0.339,-0.3391,-0.3488,-0.3488,-0.3488,-0.3419,-0.3416,-0.3414,-0.3412,-0.3317,-0.3315,-0.3314,-0.3353,0,0,-0.3309,-0.3308,0,0,0,0,0,0,0,0,-0.3297,-0.3305,-0.3388,-0.3391,-0.3392,-0.3453,-0.3397,-0.3438,-0.342,-0.3392,-0.3413,-0.3411,-0.3356,-0.3351,-0.3355,-0.3348,-0.3344,-0.3309,-0.3308,-0.3307,-0.3307,0,0,0,0,0,0,0,-0.3293,-0.3301,-0.3418,-0.3392,-0.3394,-0.3408,-0.3411,-0.3404,-0.3372,-0.3395,-0.3394,-0.3428,-0.3353,-0.3357,-0.3352,-0.3342,-0.3309,-0.3307,-0.3306,-0.3306,-0.3325,-0.3326,0,0,0,0,0,0,-0.3311,-0.3297,-0.3416,-0.3423,-0.3355,-0.3413,-0.3417,-0.3423,-0.3376,-0.3372,-0.343,-0.3425,-0.3361,-0.3354,-0.3348,-0.3361,-0.3307,-0.3306,-0.3305,-0.3323,-0.3325,-0.3327,0,0,0,0,0,0,-0.3307,-0.332,-0.3412,-0.3375,-0.339,-0.3419,-0.3427,-0.3427,-0.3433,-0.3408,-0.3396,-0.3439,-0.3358,-0.335,-0.3343,-0.3357,-0.3305,-0.3303,-0.3322,-0.3324,-0.3326,-0.3406,0,0,0,0,0,0,-0.3301,-0.3317,-0.3312,-0.3376,-0.3393,-0.3499,-0.3431,-0.3431,-0.3466,-0.3459,-0.3412,-0.34,-0.3356,-0.3346,-0.3342,-0.3354,-0.3302,-0.332,-0.3323,-0.3325,-0.3402,-0.3411,-0.3419,0,0,0,0,0,-0.3295,-0.3318,-0.331,-0.3325,-0.3389,-0.3504,-0.3514,-0.3516,-0.3469,-0.3502,-0.3446,-0.3401,-0.336,-0.3347,-0.3341,-0.3353,-0.3318,-0.3322,-0.3325,-0.3398,-0.3409,-0.3418,0,0,0,0,0,0,-0.3271,-0.3316,-0.3309,-0.3348,-0.3433,-0.3499,-0.3526,-0.3531,-0.3517,-0.349,-0.3427,-0.3415,-0.3419,-0.3383,-0.337,-0.3368,-0.333,-0.3333,-0.3387,-0.3398,-0.3406,-0.3374,-0.3301,0,0,0,0,0,-0.3263,-0.3269,-0.3354,-0.3393,-0.3428,-0.3473,-0.351,-0.3534,-0.3548,-0.3538,-0.351,-0.3463,-0.3434,-0.3411,-0.34,-0.3399,-0.3311,-0.3403,-0.3411,-0.3419,-0.339,-0.3323,-0.3322,-0.3338,-0.3338,-0.3338,0,0,-0.3276,-0.3298,-0.3308,-0.3386,-0.3428,-0.349,-0.3485,-0.3571,-0.3594,-0.3531,-0.3526,-0.351,-0.3447,-0.3447,-0.3443,-0.341,-0.3359,-0.3423,-0.3429,-0.3396,-0.3326,-0.3324,-0.3322,-0.334,-0.334,-0.3339,0,0,-0.3306,-0.3317,-0.3326,-0.3398,-0.349,-0.3524,-0.3556,-0.3637,-0.3633,-0.3665,-0.3606,-0.3591,-0.3568,-0.3516,-0.348,-0.353,-0.3424,-0.3539,-0.3534,-0.3471,-0.3468,-0.3464,-0.3303,-0.3285,-0.3524,-0.3524,-0.3524,0,-0.3306,-0.3317,-0.3366,-0.3414,-0.344,-0.3535,-0.3565,-0.3618,-0.3685,-0.3676,-0.3673,-0.3621,-0.3587,-0.3531,-0.3541,-0.3545,-0.3461,-0.3499,-0.3479,-0.3474,-0.3469,-0.3305,-0.3283,-0.3528,-0.3528,-0.3527,-0.3527,0,-0.3348,-0.3362,-0.3394,-0.3434,-0.3488,-0.3556,-0.3633,-0.3692,-0.3696,-0.3727,-0.372,-0.3686,-0.3635,-0.3642,-0.3594,-0.3548,-0.3481,-0.3514,-0.3447,-0.3471,-0.3297,-0.3273,-0.3534,-0.3533,-0.3531,-0.353,0,0,-0.3299,-0.3384,-0.3391,-0.3371,-0.3485,-0.3522,-0.3594,-0.3648,-0.3648,-0.3732,-0.3684,-0.368,-0.3679,-0.3637,-0.3601,-0.3543,-0.3427,-0.3507,-0.3502,-0.3332,-0.3206,-0.2996,-0.2948,-0.3466,-0.3464,-0.3462,-0.308,0,-0.3286,-0.3304,-0.3368,-0.3387,-0.3375,-0.3483,-0.351,-0.3589,-0.3639,-0.3653,-0.3661,-0.363,-0.3673,-0.3624,-0.3593,-0.3475,-0.3376,-0.3521,-0.3218,-0.3206,-0.3007,-0.2919,-0.2783,-0.2419,-0.3056,-0.3052,-0.3049,0,-0.326,-0.3253,-0.3235,-0.3248,-0.3255,-0.3299,-0.3312,-0.3376,-0.3474,-0.3494,-0.3538,-0.3571,-0.3512,-0.3543,-0.3361,-0.3454,-0.3322,-0.3234,-0.3219,-0.2973,-0.2953,-0.2509,-0.2351,-0.2382,-0.3011,-0.3014,-0.3016,0,-0.3083,-0.3144,-0.3078,-0.3104,-0.3169,-0.3167,-0.3213,-0.331,-0.3335,-0.3401,-0.3398,-0.3413,-0.3329,-0.3274,-0.3147,-0.3242,-0.2894,-0.3003,-0.2674,-0.2654,-0.2446,-0.2412,-0.2266,-0.2833,-0.2834,-0.2835,-0.2836,0,-0.2986,-0.2947,-0.2991,-0.297,-0.2893,-0.2999,-0.2982,-0.3049,-0.3139,-0.3092,-0.3288,-0.3176,-0.3261,-0.3128,-0.3062,-0.2741,-0.282,-0.2603,-0.2537,-0.2464,-0.2438,-0.2382,-0.2468,-0.2821,-0.2824,-0.2827,-0.2829,0,-0.2807,-0.2851,-0.2773,-0.28,-0.2804,-0.2747,-0.2852,-0.2862,-0.2958,-0.2895,-0.2904,-0.295,-0.273,-0.2761,-0.2553,-0.2525,-0.2241,-0.2176,-0.2032,-0.1956,-0.173,-0.1825,-0.1517,-0.1481,-0.1759,-0.1752,-0.1745,0,-0.2712,-0.2644,-0.2613,-0.2541,-0.2553,-0.2542,-0.2547,-0.2719,-0.2744,-0.2673,-0.2595,-0.244,-0.2205,-0.1886,-0.1836,-0.1644,-0.18,-0.1438,-0.1618,-0.1619,-0.168,-0.1783,-0.179,-0.1349,-0.134,-0.1332,-0.1326,0,-0.2485,-0.2471,-0.2393,-0.2269,-0.2233,-0.2254,-0.2287,-0.2299,-0.2409,-0.2307,-0.2023,-0.181,-0.1508,-0.118,-0.1039,-0.103,-0.1428,-0.1272,-0.1341,-0.136,-0.1394,-0.136,-0.1657,-0.126,-0.1267,-0.1271,-0.1275,-0.1278,-0.2284,-0.2164,-0.2059,-0.1935,-0.191,-0.1922,-0.1886,-0.191,-0.1831,-0.1615,-0.149,-0.1073,-0.0691,-0.0441,-0.0519,-0.0621,-0.0778,-0.0681,-0.0783,-0.0878,-0.0887,-0.0968,-0.0485,-0.0487,-0.0489,-0.049,-0.0492,0,-0.2054,-0.1919,-0.1744,-0.1641,-0.1588,-0.167,-0.166,-0.1587,-0.1368,-0.1139,-0.0818,-0.0275,0.0077,0.0086,0.0104,-0.0077,-0.0341,-0.0275,-0.0476,-0.0504,-0.0591,-0.0625,-0.0069,-0.0069,-0.0069,-0.0069,-0.0069,-0.0069,-0.1918,-0.1672,-0.1575,-0.1353,-0.1313,-0.1219,-0.1177,-0.0994,-0.083,-0.0371,-0.0083,0.007,0.0321,0.0487,0.0281,0.0078,-0.0164,-0.0172,-0.031,-0.0497,-0.055,-0.06,-0.0653,-0.0112,-0.0112,-0.019,-0.019,-0.0191]},{"header":{"parameterUnit":"m.s-1","parameterCategory":2,"la1":30.2991,"la2":30.254,"lo1":-89.0895,"lo2":-89.0444,"dy":0.0017,"dx":0.0017,"nx":28,"ny":28,"refTime":"2023-10-17T21:00:00:Z","depth":"0","parameterNumber":3,"parameterNumberName":"V-component_of_CURRENTS"},"data":[0,0,0,0,0,0,0,0,0,0,0,0,0,0,0,0,0,0,0,0,0,0,0,0,0,0,0,0,0,0,0,0,0,0,0,0,0,0,0,0,0,0,0,0,0,0,0,0,0,0,0,0,0,0,0,0,0,0,-0.0441,-0.0439,0,-0.0183,-0.0179,-0.0176,0.0015,0.0016,0.0017,0.0019,0.0205,0.0209,0.0213,0,0,0,0,0,0,0,0,0,0,0,0,0,-0.0654,-0.0652,-0.0442,-0.0439,-0.0436,-0.0183,-0.0179,-0.0175,0.0014,0.0016,0.0018,0.0019,0.0204,0.0208,0.0213,0,0,0,0,0,0,0,0,0,0,0,0,0,-0.0493,-0.0651,-0.0442,-0.0313,-0.0299,-0.0184,-0.0179,-0.0174,0.0014,0.0016,0.0018,0.002,0.0203,0.0208,0.0214,0.0207,0,0,0.0231,0.0233,0,0,0,0,0,0,0,0,-0.0502,-0.0485,-0.0335,-0.0322,-0.0306,-0.0117,-0.0185,-0.0051,0.0013,-0.0102,0.0019,0.0021,0.0087,0.0102,0.0152,0.0216,0.0224,0.0231,0.0234,0.0237,0.0238,0,0,0,0,0,0,0,-0.0514,-0.0494,-0.0336,-0.0332,-0.0314,-0.0228,-0.0203,-0.0158,-0.0021,-0.0091,-0.0078,-0.0055,0.0095,0.0146,0.0158,0.0227,0.0231,0.0236,0.0239,0.0241,0.0275,0.0273,0,0,0,0,0,0,-0.056,-0.0506,-0.0344,-0.0328,-0.0405,-0.0227,-0.0199,-0.0177,-0.0019,0.0007,-0.0057,-0.0047,0.0136,0.0151,0.0165,0.0162,0.0237,0.0242,0.0245,0.0278,0.0275,0.0272,0,0,0,0,0,0,-0.0566,-0.0549,-0.0355,-0.0413,-0.0383,-0.0226,-0.0202,-0.0173,-0.0106,0.0007,0.0033,-0.0018,0.0138,0.0157,0.0186,0.017,0.0244,0.0249,0.0281,0.0277,0.0274,0.0157,0,0,0,0,0,0,-0.0573,-0.0552,-0.0555,-0.0417,-0.0381,-0.0288,-0.0204,-0.017,-0.0097,-0.0081,0.0047,0.0067,0.0141,0.0177,0.0191,0.0179,0.0254,0.0284,0.0279,0.0275,0.0164,0.015,0.0138,0,0,0,0,0,-0.0582,-0.0583,-0.0556,-0.0537,-0.0389,-0.0289,-0.0263,-0.0142,-0.0098,-0.0073,-0.001,0.0064,0.0159,0.0179,0.0197,0.0186,0.0286,0.028,0.0275,0.017,0.0153,0.0138,0,0,0,0,0,0,-0.0663,-0.0561,-0.0528,-0.0496,-0.0408,-0.0258,-0.0225,-0.0152,-0.0076,-0.0068,0.0036,0.0059,0.0083,0.0132,0.0152,0.0176,0.0233,0.0231,0.0147,0.0131,0.0118,0.0081,0.0258,0,0,0,0,0,-0.0694,-0.0672,-0.0559,-0.0535,-0.05,-0.0371,-0.0317,-0.0239,-0.0153,-0.0112,-0.0037,0.0024,0.0071,0.0098,0.015,0.0157,0.0211,0.0157,0.0144,0.0133,0.011,0.0134,0.0122,0.0254,0.0254,0.0255,0,0,-0.0717,-0.0661,-0.0646,-0.0553,-0.0476,-0.0433,-0.0331,-0.0257,-0.0232,-0.0114,-0.0078,-0.0014,0.0061,0.008,0.0094,0.0121,0.0132,0.0126,0.0116,0.0099,0.0127,0.0115,0.0104,0.0251,0.0251,0.0252,0,0,-0.0749,-0.0709,-0.0699,-0.0639,-0.0543,-0.0477,-0.0466,-0.034,-0.0294,-0.0256,-0.0175,-0.0139,-0.0057,-0.0012,0.0022,-0.0044,0.0064,-0.0021,-0.0113,-0.0089,-0.0099,-0.0108,-0.0011,-0.001,-0.003,-0.0031,-0.0031,0,-0.0783,-0.0753,-0.0679,-0.065,-0.0613,-0.051,-0.0489,-0.0438,-0.0325,-0.032,-0.0267,-0.0174,-0.0104,-0.0091,-0.0108,-0.007,-0.0018,-0.0051,-0.0105,-0.0112,-0.0119,-0.0018,-0.0016,-0.0037,-0.0036,-0.0035,-0.0035,0,-0.0802,-0.0775,-0.0764,-0.0712,-0.0669,-0.0632,-0.0562,-0.0544,-0.0493,-0.0441,-0.0416,-0.0326,-0.0272,-0.0244,-0.0188,-0.0207,-0.0137,-0.0118,-0.0061,-0.0139,-0.0027,-0.0023,-0.0046,-0.0043,-0.0042,-0.004,0,0,-0.0868,-0.0797,-0.079,-0.0776,-0.0699,-0.0663,-0.067,-0.0639,-0.0645,-0.0577,-0.0578,-0.0507,-0.0458,-0.0421,-0.0345,-0.0326,-0.0301,-0.0254,-0.025,-0.0151,-0.0195,-0.0128,-0.0114,-0.0293,-0.0294,-0.0295,-0.008,0,-0.0901,-0.0879,-0.0836,-0.0826,-0.0803,-0.0751,-0.0763,-0.0736,-0.0699,-0.0689,-0.0632,-0.0591,-0.0525,-0.0485,-0.047,-0.0325,-0.0302,-0.0357,-0.0142,-0.0134,-0.0061,-0.0113,-0.0008,0.019,-0.0075,-0.0074,-0.0073,0,-0.0921,-0.0906,-0.0899,-0.0878,-0.0869,-0.0869,-0.0874,-0.0866,-0.0854,-0.0823,-0.0801,-0.073,-0.0674,-0.0619,-0.0454,-0.0487,-0.0376,-0.0275,-0.0264,-0.0167,-0.0062,0.0215,0.021,0.0233,-0.0065,-0.0065,-0.0066,0,-0.0974,-0.0948,-0.0954,-0.0938,-0.0906,-0.0928,-0.0931,-0.0917,-0.0909,-0.0905,-0.0852,-0.0822,-0.0708,-0.064,-0.041,-0.0438,-0.0209,-0.0212,-0.0051,-0.0039,0.0107,0.0131,0.0149,-0.0156,-0.0156,-0.0157,-0.0157,0,-0.1,-0.0999,-0.0986,-0.098,-0.1021,-0.0983,-0.1023,-0.1019,-0.0998,-0.0922,-0.0915,-0.0786,-0.0708,-0.0546,-0.0433,-0.0187,-0.0217,-0.0074,-0.0004,0.0075,0.0092,0.0164,0.0154,-0.0149,-0.015,-0.0152,-0.0153,0,-0.101,-0.1001,-0.1006,-0.1014,-0.1029,-0.1053,-0.1064,-0.1074,-0.1029,-0.0915,-0.0895,-0.074,-0.0503,-0.0401,-0.0199,-0.0128,0.0097,0.0113,0.0236,0.0311,0.0414,0.0395,0.0504,0.0581,0.0293,0.0295,0.0298,0,-0.1001,-0.1003,-0.1033,-0.1049,-0.1052,-0.1091,-0.1109,-0.1106,-0.1039,-0.0802,-0.0696,-0.0492,-0.0206,0.0073,0.0118,0.0276,0.0289,0.0464,0.0377,0.0418,0.0449,0.042,0.0474,0.0573,0.0577,0.0581,0.0583,0,-0.0979,-0.0995,-0.1,-0.1047,-0.1076,-0.1103,-0.1075,-0.0996,-0.0865,-0.0652,-0.0233,0.0006,0.0222,0.0476,0.0537,0.059,0.05,0.0538,0.054,0.0615,0.0626,0.0738,0.0479,0.0614,0.0611,0.0609,0.0607,0.0606,-0.0942,-0.0964,-0.0982,-0.1026,-0.1065,-0.1017,-0.0902,-0.0755,-0.0508,0.0014,0.0213,0.0759,0.0823,0.0924,0.0882,0.0794,0.0746,0.0871,0.0843,0.0808,0.085,0.0668,0.0881,0.088,0.0879,0.0877,0.0876,0,-0.0838,-0.0905,-0.096,-0.0981,-0.0982,-0.1013,-0.0802,-0.0552,-0.0078,0.0399,0.093,0.1473,0.1536,0.1392,0.1186,0.1146,0.1073,0.1144,0.1116,0.1156,0.0989,0.0963,0.125,0.125,0.125,0.125,0.125,0.125,-0.077,-0.0806,-0.087,-0.0882,-0.0879,-0.0659,-0.0447,-0.0034,0.0396,0.1227,0.1769,0.2141,0.2002,0.1558,0.1337,0.1315,0.1314,0.1335,0.131,0.1162,0.1133,0.1105,0.1074,0.138,0.138,0.1533,0.1534,0.1535]}],[{"header":{"parameterUnit":"m.s-1","parameterCategory":2,"la1":30.2991,"la2":30.254,"lo1":-89.0895,"lo2":-89.0444,"dy":0.0017,"dx":0.0017,"nx":28,"ny":28,"refTime":"2023-10-17T21:00:00:Z","depth":"2","parameterNumber":2,"parameterNumberName":"U-component_of_CURRENTS"},"data":[0,0,0,0,0,0,0,0,0,0,0,0,0,0,0,0,0,0,0,0,0,0,0,0,0,0,0,0,0,0,0,0,0,0,0,0,0,0,0,0,0,0,0,0,0,0,0,0,0,0,0,0,0,0,0,0,0,0,-0.201,-0.2009,0,-0.1947,-0.1946,-0.1946,-0.194,-0.1941,-0.1942,-0.1943,-0.1999,-0.1999,-0.2,0,0,0,0,0,0,0,0,0,0,0,0,0,-0.1995,-0.1996,-0.201,-0.2009,-0.2009,-0.1947,-0.1946,-0.1945,-0.194,-0.1941,-0.1942,-0.1943,-0.1998,-0.1999,-0.2,0,0,0,0,0,0,0,0,0,0,0,0,0,-0.1972,-0.1996,-0.201,-0.2,-0.1999,-0.1948,-0.1946,-0.1945,-0.194,-0.1941,-0.1942,-0.1943,-0.1998,-0.1999,-0.2,-0.1981,0,0,-0.2003,-0.2004,0,0,0,0,0,0,0,0,-0.1974,-0.1973,-0.2002,-0.2001,-0.1999,-0.1955,-0.1962,-0.1964,-0.1939,-0.196,-0.1943,-0.1944,-0.1995,-0.1997,-0.1977,-0.1983,-0.1986,-0.2003,-0.2004,-0.2004,-0.2005,0,0,0,0,0,0,0,-0.1976,-0.1975,-0.1983,-0.2001,-0.2,-0.1955,-0.1954,-0.1961,-0.1972,-0.1958,-0.1958,-0.1954,-0.1995,-0.1976,-0.1979,-0.1987,-0.2003,-0.2004,-0.2005,-0.2005,-0.1952,-0.195,0,0,0,0,0,0,-0.1993,-0.1977,-0.1985,-0.1981,-0.1992,-0.1955,-0.1953,-0.1966,-0.1969,-0.197,-0.1953,-0.1954,-0.1974,-0.1978,-0.1981,-0.1962,-0.2004,-0.2005,-0.2006,-0.1954,-0.1951,-0.1949,0,0,0,0,0,0,-0.1993,-0.1995,-0.1987,-0.1978,-0.1974,-0.1955,-0.1968,-0.1964,-0.1961,-0.1964,-0.1968,-0.1957,-0.1975,-0.198,-0.1959,-0.1965,-0.2006,-0.2007,-0.1956,-0.1953,-0.195,-0.1923,0,0,0,0,0,0,-0.1993,-0.1996,-0.2023,-0.198,-0.1976,-0.1958,-0.1967,-0.1962,-0.1957,-0.1958,-0.1968,-0.1973,-0.1976,-0.1957,-0.196,-0.1967,-0.2008,-0.1959,-0.1955,-0.1951,-0.1927,-0.192,-0.1913,0,0,0,0,0,-0.1993,-0.2009,-0.2025,-0.2027,-0.2011,-0.1957,-0.195,-0.1938,-0.1956,-0.1943,-0.1931,-0.1974,-0.1936,-0.1955,-0.196,-0.1968,-0.1961,-0.1956,-0.1951,-0.193,-0.1921,-0.1914,0,0,0,0,0,0,-0.2,-0.2009,-0.2026,-0.2043,-0.2009,-0.1957,-0.1955,-0.1945,-0.1923,-0.1936,-0.1943,-0.1944,-0.1925,-0.1939,-0.1961,-0.1934,-0.1958,-0.1954,-0.194,-0.1932,-0.1926,-0.1949,-0.2009,0,0,0,0,0,-0.2022,-0.2039,-0.2024,-0.2026,-0.2029,-0.1999,-0.1985,-0.1967,-0.1937,-0.1931,-0.1926,-0.1921,-0.1904,-0.1914,-0.1894,-0.189,-0.1892,-0.1895,-0.1888,-0.1883,-0.19,-0.1888,-0.1883,-0.1934,-0.1934,-0.1934,0,0,-0.2013,-0.2025,-0.203,-0.203,-0.2016,-0.199,-0.1993,-0.1966,-0.1937,-0.1943,-0.1911,-0.1895,-0.189,-0.1863,-0.186,-0.1885,-0.1859,-0.1877,-0.1873,-0.1893,-0.1883,-0.1878,-0.1874,-0.1931,-0.1931,-0.1932,0,0,-0.1979,-0.2032,-0.2032,-0.2016,-0.2004,-0.1988,-0.1987,-0.1944,-0.1935,-0.1892,-0.1881,-0.1859,-0.1844,-0.1828,-0.1825,-0.1774,-0.1811,-0.1779,-0.1788,-0.1775,-0.1772,-0.177,-0.1729,-0.1724,-0.1793,-0.1793,-0.1793,0,-0.1984,-0.1985,-0.2011,-0.1999,-0.1995,-0.1992,-0.1972,-0.1946,-0.1888,-0.1889,-0.1883,-0.1834,-0.1827,-0.1805,-0.1777,-0.1766,-0.1758,-0.1824,-0.1771,-0.1768,-0.1766,-0.1726,-0.172,-0.1791,-0.1791,-0.1791,-0.1791,0,-0.1941,-0.1946,-0.194,-0.1946,-0.1938,-0.1916,-0.1904,-0.1891,-0.1893,-0.1868,-0.1842,-0.1802,-0.1787,-0.1772,-0.1763,-0.1744,-0.1738,-0.1753,-0.1801,-0.176,-0.1719,-0.1713,-0.1788,-0.1789,-0.1789,-0.179,0,0,-0.1937,-0.1925,-0.1918,-0.192,-0.1921,-0.1902,-0.1891,-0.1882,-0.1887,-0.184,-0.1835,-0.1782,-0.1782,-0.1775,-0.1757,-0.1747,-0.1699,-0.1752,-0.1752,-0.1729,-0.1654,-0.1559,-0.1543,-0.1715,-0.1714,-0.1714,-0.1619,0,-0.1903,-0.1868,-0.1881,-0.1845,-0.1837,-0.1864,-0.1854,-0.1846,-0.1848,-0.1834,-0.1821,-0.1792,-0.1778,-0.1768,-0.1755,-0.1713,-0.169,-0.1723,-0.1683,-0.1681,-0.1617,-0.1536,-0.1423,-0.1321,-0.1614,-0.1613,-0.1612,0,-0.1854,-0.1848,-0.181,-0.1823,-0.1831,-0.1813,-0.1849,-0.1835,-0.1838,-0.1845,-0.1838,-0.1819,-0.1782,-0.1778,-0.171,-0.1736,-0.1696,-0.1664,-0.1661,-0.1587,-0.1576,-0.1414,-0.1301,-0.1603,-0.1604,-0.1604,-0.1605,0,-0.1813,-0.1801,-0.1779,-0.1775,-0.1783,-0.1795,-0.1816,-0.1833,-0.1834,-0.1844,-0.1839,-0.1819,-0.1777,-0.1751,-0.1674,-0.1699,-0.1595,-0.1622,-0.1494,-0.1486,-0.139,-0.1373,-0.1577,-0.1577,-0.1577,-0.1577,-0.1578,0,-0.1762,-0.1737,-0.1757,-0.1735,-0.1743,-0.177,-0.1778,-0.1807,-0.1824,-0.1804,-0.1832,-0.1793,-0.177,-0.1705,-0.1669,-0.1541,-0.1586,-0.1474,-0.1452,-0.1369,-0.1353,-0.1614,-0.162,-0.1574,-0.1575,-0.1575,-0.1576,0,-0.1671,-0.1677,-0.1661,-0.1693,-0.1705,-0.1708,-0.1749,-0.1747,-0.1784,-0.1756,-0.1751,-0.1747,-0.1654,-0.1609,-0.1533,-0.1493,-0.1414,-0.1362,-0.1245,-0.121,-0.1318,-0.1323,-0.1215,-0.121,-0.1207,-0.1204,-0.1201,0,-0.1611,-0.1587,-0.1625,-0.1623,-0.1629,-0.1645,-0.1649,-0.1709,-0.1696,-0.1703,-0.1667,-0.1601,-0.1532,-0.1393,-0.1282,-0.1175,-0.1271,-0.1035,-0.1062,-0.129,-0.128,-0.1291,-0.13,-0.0908,-0.0903,-0.09,-0.0897,0,-0.1509,-0.1529,-0.1527,-0.1528,-0.1531,-0.1533,-0.1541,-0.1524,-0.156,-0.155,-0.1507,-0.1474,-0.1327,-0.1171,-0.1032,-0.0954,-0.105,-0.0951,-0.1209,-0.102,-0.0994,-0.0987,-0.1008,-0.0862,-0.0866,-0.0868,-0.087,-0.0871,-0.1435,-0.1427,-0.1429,-0.1421,-0.1425,-0.1384,-0.1337,-0.1345,-0.1311,-0.1245,-0.1308,-0.1218,-0.1196,-0.0905,-0.0802,-0.0671,-0.0762,-0.0748,-0.0763,-0.0782,-0.0766,-0.0735,-0.055,-0.0552,-0.0553,-0.0554,-0.0555,0,-0.1311,-0.1312,-0.1318,-0.1284,-0.1229,-0.1272,-0.1226,-0.1153,-0.1063,-0.1049,-0.1014,-0.0875,-0.077,-0.0719,-0.0479,-0.0429,-0.0435,-0.0393,-0.0452,-0.0484,-0.0513,-0.0489,-0.0196,-0.0196,-0.0195,-0.0194,0,0,-0.1226,-0.1185,-0.1201,-0.1081,-0.1054,-0.0923,-0.0866,-0.0807,-0.0768,-0.068,-0.0633,-0.0707,-0.0724,-0.0511,-0.043,-0.0294,-0.038,-0.0228,-0.0511,-0.0614,-0.0643,-0.0701,-0.0695,0,0,0,0,0]},{"header":{"parameterUnit":"m.s-1","parameterCategory":2,"la1":30.2991,"la2":30.254,"lo1":-89.0895,"lo2":-89.0444,"dy":0.0017,"dx":0.0017,"nx":28,"ny":28,"refTime":"2023-10-17T21:00:00:Z","depth":"2","parameterNumber":3,"parameterNumberName":"V-component_of_CURRENTS"},"data":[0,0,0,0,0,0,0,0,0,0,0,0,0,0,0,0,0,0,0,0,0,0,0,0,0,0,0,0,0,0,0,0,0,0,0,0,0,0,0,0,0,0,0,0,0,0,0,0,0,0,0,0,0,0,0,0,0,0,-0.067,-0.0669,0,-0.0575,-0.0574,-0.0572,-0.0489,-0.0489,-0.0488,-0.0488,-0.0351,-0.0348,-0.0344,0,0,0,0,0,0,0,0,0,0,0,0,0,-0.0707,-0.0706,-0.067,-0.0669,-0.0668,-0.0575,-0.0574,-0.0572,-0.0489,-0.0489,-0.0488,-0.0488,-0.0352,-0.0348,-0.0344,0,0,0,0,0,0,0,0,0,0,0,0,0,-0.0655,-0.0706,-0.067,-0.062,-0.0614,-0.0576,-0.0574,-0.0571,-0.049,-0.0489,-0.0488,-0.0487,-0.0353,-0.0348,-0.0344,-0.0329,0,0,-0.0329,-0.0327,0,0,0,0,0,0,0,0,-0.0658,-0.0653,-0.0628,-0.0623,-0.0617,-0.0548,-0.0536,-0.049,-0.049,-0.0532,-0.0488,-0.0487,-0.0416,-0.0406,-0.0384,-0.0323,-0.0317,-0.0329,-0.0326,-0.0324,-0.0322,0,0,0,0,0,0,0,-0.0662,-0.0656,-0.0627,-0.0627,-0.0621,-0.0577,-0.0569,-0.0527,-0.0475,-0.0528,-0.0523,-0.0521,-0.0412,-0.0389,-0.038,-0.0315,-0.0329,-0.0325,-0.0322,-0.032,-0.0191,-0.019,0,0,0,0,0,0,-0.0688,-0.066,-0.063,-0.0625,-0.0642,-0.0578,-0.0569,-0.0567,-0.0476,-0.0463,-0.0521,-0.0517,-0.0397,-0.0386,-0.0375,-0.0316,-0.0324,-0.0319,-0.0316,-0.0191,-0.0191,-0.019,0,0,0,0,0,0,-0.0689,-0.0686,-0.0634,-0.0644,-0.0635,-0.0579,-0.0577,-0.0565,-0.0537,-0.0472,-0.0457,-0.0505,-0.0396,-0.0382,-0.0338,-0.0311,-0.0317,-0.0313,-0.0192,-0.0191,-0.019,-0.0221,0,0,0,0,0,0,-0.069,-0.0687,-0.0693,-0.0646,-0.0636,-0.0603,-0.0578,-0.0564,-0.0539,-0.0532,-0.0454,-0.044,-0.0394,-0.0346,-0.0333,-0.0305,-0.0309,-0.0193,-0.0192,-0.0191,-0.0221,-0.0221,-0.0222,0,0,0,0,0,-0.0692,-0.0703,-0.0694,-0.0691,-0.0646,-0.0603,-0.0592,-0.0547,-0.054,-0.052,-0.0479,-0.0443,-0.0329,-0.0342,-0.0328,-0.0297,-0.0193,-0.0192,-0.0191,-0.022,-0.0221,-0.0222,0,0,0,0,0,0,-0.0717,-0.0695,-0.0684,-0.0686,-0.0647,-0.0591,-0.0577,-0.0553,-0.0505,-0.05,-0.0443,-0.0427,-0.0379,-0.0339,-0.0355,-0.0257,-0.0252,-0.0248,-0.0279,-0.0279,-0.028,-0.0281,-0.0305,0,0,0,0,0,-0.0731,-0.0734,-0.0695,-0.0695,-0.0679,-0.0631,-0.0611,-0.0578,-0.0535,-0.0512,-0.0465,-0.0411,-0.0363,-0.0326,-0.0281,-0.023,-0.02,-0.0199,-0.0199,-0.02,-0.0191,-0.0139,-0.0134,-0.0186,-0.0186,-0.0186,0,0,-0.0741,-0.0731,-0.0732,-0.0702,-0.0669,-0.0634,-0.0614,-0.0581,-0.0548,-0.0507,-0.0454,-0.0419,-0.0355,-0.0298,-0.027,-0.0259,-0.0171,-0.0198,-0.02,-0.019,-0.0137,-0.0132,-0.0127,-0.0185,-0.0185,-0.0186,0,0,-0.0751,-0.0752,-0.0747,-0.0715,-0.0675,-0.0643,-0.0638,-0.0583,-0.0552,-0.0506,-0.047,-0.0423,-0.0347,-0.029,-0.0253,-0.023,-0.0188,-0.0214,-0.02,-0.015,-0.0146,-0.0141,-0.0109,-0.0101,-0.02,-0.02,-0.02,0,-0.0761,-0.0751,-0.0735,-0.071,-0.0688,-0.065,-0.0622,-0.0583,-0.0521,-0.0498,-0.0491,-0.0385,-0.0336,-0.0259,-0.0246,-0.0228,-0.0205,-0.0205,-0.0152,-0.0146,-0.0141,-0.0109,-0.01,-0.0202,-0.0202,-0.0201,-0.0201,0,-0.0757,-0.0739,-0.0731,-0.0692,-0.0665,-0.0637,-0.0588,-0.0558,-0.0532,-0.049,-0.0427,-0.0368,-0.0302,-0.0276,-0.0249,-0.0182,-0.0181,-0.0172,-0.0153,-0.0138,-0.0105,-0.0095,-0.0204,-0.0203,-0.0203,-0.0202,0,0,-0.0795,-0.074,-0.0734,-0.0713,-0.0655,-0.0636,-0.0587,-0.0533,-0.0506,-0.0445,-0.0402,-0.0317,-0.0296,-0.0254,-0.0215,-0.0161,-0.0109,-0.0151,-0.0148,-0.0125,-0.0012,0.0005,0.0017,-0.0096,-0.0094,-0.0093,-0.0009,0,-0.0788,-0.0753,-0.0724,-0.0682,-0.0656,-0.0612,-0.0575,-0.0523,-0.0478,-0.0429,-0.036,-0.0308,-0.0282,-0.0257,-0.02,-0.0136,-0.0083,-0.0133,-0.0024,-0.0021,-0.0012,0.003,0.0007,0.0081,0.0001,0.0003,0.0004,0,-0.0785,-0.0763,-0.0728,-0.068,-0.0667,-0.0643,-0.0594,-0.0554,-0.0473,-0.0437,-0.037,-0.0322,-0.0233,-0.0225,-0.0093,-0.0131,-0.0072,-0.0022,-0.0017,0.002,0.0015,0.0057,0.0103,0.0021,0.0019,0.0018,0.0017,0,-0.0822,-0.0766,-0.0748,-0.0728,-0.0667,-0.0655,-0.0631,-0.056,-0.0531,-0.0447,-0.0413,-0.0312,-0.0257,-0.0169,-0.0063,-0.0078,0.0073,0.0066,0.0139,0.014,0.0155,0.0155,0.0163,0.0162,0.0162,0.0162,0.0162,0,-0.0824,-0.0805,-0.077,-0.0757,-0.075,-0.0697,-0.068,-0.0635,-0.0568,-0.0527,-0.043,-0.0369,-0.024,-0.0138,-0.0057,0.0076,0.0081,0.0156,0.0174,0.0143,0.014,0.0116,0.0109,0.0165,0.0164,0.0164,0.0163,0,-0.0843,-0.0818,-0.0802,-0.0766,-0.0764,-0.0763,-0.0733,-0.0714,-0.0639,-0.0582,-0.0555,-0.0404,-0.0258,-0.013,0.0028,0.0091,0.0207,0.025,0.0197,0.0208,0.0234,0.0225,0.0342,0.0343,0.0345,0.0346,0.0347,0,-0.0844,-0.0835,-0.0832,-0.0845,-0.0832,-0.0829,-0.0827,-0.0766,-0.0736,-0.0598,-0.0568,-0.0404,-0.0277,-0.0037,0.0113,0.027,0.0263,0.0326,0.0306,0.0253,0.0259,0.0247,0.0237,0.0307,0.0308,0.0308,0.0309,0,-0.0842,-0.0851,-0.0847,-0.0882,-0.0898,-0.0907,-0.0892,-0.0877,-0.0787,-0.0717,-0.0583,-0.0468,-0.0209,-0.001,0.0202,0.0281,0.0297,0.034,0.0324,0.0261,0.0227,0.023,0.022,0.0312,0.0312,0.0312,0.0312,0.0311,-0.0853,-0.0864,-0.0879,-0.091,-0.094,-0.0958,-0.0959,-0.0917,-0.0863,-0.0705,-0.0613,-0.0396,-0.022,0.0121,0.0243,0.0371,0.0368,0.0383,0.0379,0.0375,0.0353,0.0322,0.042,0.0421,0.0421,0.0421,0.0421,0,-0.0862,-0.0873,-0.0904,-0.0942,-0.0985,-0.099,-0.0979,-0.0941,-0.0869,-0.0684,-0.0543,-0.0322,-0.0091,0.0115,0.0325,0.0419,0.0396,0.0425,0.0374,0.037,0.0366,0.034,0.0406,0.0407,0.0407,0.0407,0,0,-0.0867,-0.0891,-0.0905,-0.0967,-0.0999,-0.1023,-0.1015,-0.094,-0.0801,-0.0604,-0.0419,-0.0233,-0.0015,0.0114,0.0228,0.0344,0.033,0.0345,0.0346,0.0268,0.0263,0.033,0.0285,0,0,0,0,0]}],[{"header":{"parameterUnit":"m.s-1","parameterCategory":2,"la1":30.2991,"la2":30.254,"lo1":-89.0895,"lo2":-89.0444,"dy":0.0017,"dx":0.0017,"nx":28,"ny":28,"refTime":"2023-10-17T21:00:00:Z","depth":"4","parameterNumber":2,"parameterNumberName":"U-component_of_CURRENTS"},"data":[0,0,0,0,0,0,0,0,0,0,0,0,0,0,0,0,0,0,0,0,0,0,0,0,0,0,0,0,0,0,0,0,0,0,0,0,0,0,0,0,0,0,0,0,0,0,0,0,0,0,0,0,0,0,0,0,0,0,-0.119,-0.119,0,-0.1208,-0.1209,-0.1209,-0.1243,-0.1243,-0.1244,-0.1244,-0.1286,-0.1287,-0.1288,0,0,0,0,0,0,0,0,0,0,0,0,0,-0.1175,-0.1176,-0.119,-0.119,-0.119,-0.1208,-0.1209,-0.1209,-0.1243,-0.1243,-0.1244,-0.1244,-0.1286,-0.1287,-0.1288,0,0,0,0,0,0,0,0,0,0,0,0,0,-0.119,-0.1176,-0.119,-0.1207,-0.1208,-0.1208,-0.1209,-0.1209,-0.1243,-0.1243,-0.1244,-0.1244,-0.1286,-0.1287,-0.1288,-0.1284,0,0,-0.1292,-0.1292,0,0,0,0,0,0,0,0,-0.1189,-0.1191,-0.1204,-0.1206,-0.1207,-0.1221,-0.1219,-0.1234,-0.1243,-0.1233,-0.1244,-0.1245,-0.1264,-0.1267,-0.1274,-0.1286,-0.1288,-0.1292,-0.1292,-0.1293,-0.1293,0,0,0,0,0,0,0,-0.1188,-0.119,-0.1201,-0.1204,-0.1206,-0.1209,-0.1213,-0.1222,-0.1248,-0.1234,-0.1236,-0.1232,-0.1266,-0.1272,-0.1275,-0.1289,-0.1292,-0.1293,-0.1293,-0.1294,-0.133,-0.1331,0,0,0,0,0,0,-0.1179,-0.1189,-0.12,-0.1201,-0.1195,-0.1209,-0.1213,-0.1219,-0.1248,-0.1252,-0.1232,-0.1234,-0.127,-0.1273,-0.1276,-0.1322,-0.1293,-0.1294,-0.1295,-0.133,-0.133,-0.1331,0,0,0,0,0,0,-0.1179,-0.118,-0.1199,-0.1192,-0.1194,-0.1208,-0.1215,-0.1219,-0.1247,-0.1245,-0.125,-0.1258,-0.1271,-0.1275,-0.1301,-0.1322,-0.1295,-0.1296,-0.133,-0.133,-0.1331,-0.1383,0,0,0,0,0,0,-0.1178,-0.118,-0.1192,-0.1192,-0.1194,-0.121,-0.1214,-0.1218,-0.124,-0.1244,-0.1269,-0.1272,-0.1271,-0.13,-0.1303,-0.1323,-0.1297,-0.1329,-0.133,-0.133,-0.1381,-0.1385,-0.1388,0,0,0,0,0,-0.1178,-0.1185,-0.1193,-0.1194,-0.1207,-0.121,-0.1213,-0.1226,-0.1241,-0.1255,-0.1273,-0.1272,-0.1304,-0.1301,-0.1305,-0.1326,-0.1329,-0.133,-0.133,-0.1379,-0.1384,-0.1388,0,0,0,0,0,0,-0.1181,-0.1188,-0.1197,-0.1206,-0.1214,-0.1215,-0.1228,-0.1239,-0.1264,-0.1277,-0.1282,-0.1286,-0.1314,-0.1309,-0.1306,-0.1335,-0.1314,-0.1315,-0.135,-0.1355,-0.1359,-0.136,-0.1297,0,0,0,0,0,-0.1186,-0.1203,-0.1202,-0.1215,-0.1218,-0.123,-0.1238,-0.1248,-0.1262,-0.1276,-0.1289,-0.1302,-0.1315,-0.1328,-0.1333,-0.1356,-0.1334,-0.1367,-0.1371,-0.1375,-0.1376,-0.1363,-0.1366,-0.1333,-0.1333,-0.1333,0,0,-0.119,-0.1199,-0.1208,-0.1219,-0.1229,-0.1241,-0.1238,-0.1257,-0.1278,-0.1275,-0.1315,-0.1318,-0.1322,-0.1346,-0.1357,-0.1349,-0.137,-0.1375,-0.1379,-0.1378,-0.1364,-0.1367,-0.137,-0.1333,-0.1333,-0.1333,0,0,-0.12,-0.1217,-0.123,-0.1242,-0.1257,-0.1263,-0.1273,-0.1285,-0.1303,-0.1331,-0.1335,-0.1352,-0.1372,-0.1378,-0.1384,-0.1411,-0.1389,-0.1413,-0.1442,-0.143,-0.1432,-0.1435,-0.1403,-0.1402,-0.1418,-0.1418,-0.1418,0,-0.1208,-0.1226,-0.1234,-0.125,-0.1267,-0.1277,-0.1296,-0.1313,-0.1334,-0.1351,-0.135,-0.138,-0.1386,-0.1414,-0.1425,-0.1423,-0.1403,-0.1429,-0.1436,-0.1437,-0.1439,-0.1405,-0.1404,-0.1421,-0.1421,-0.142,-0.142,0,-0.1217,-0.1245,-0.1255,-0.1286,-0.1303,-0.1324,-0.134,-0.1365,-0.1387,-0.1397,-0.1428,-0.143,-0.1445,-0.1451,-0.1452,-0.147,-0.1448,-0.1441,-0.1427,-0.1446,-0.1409,-0.1406,-0.1425,-0.1424,-0.1423,-0.1422,0,0,-0.1202,-0.1253,-0.1261,-0.129,-0.1329,-0.1342,-0.1384,-0.1414,-0.1442,-0.1458,-0.1485,-0.1507,-0.1502,-0.1507,-0.1505,-0.1501,-0.1495,-0.1482,-0.148,-0.1455,-0.1454,-0.1338,-0.1324,-0.1493,-0.1494,-0.1494,-0.1421,0,-0.1213,-0.1251,-0.1279,-0.1331,-0.1352,-0.139,-0.1425,-0.1459,-0.1482,-0.1506,-0.1513,-0.153,-0.1526,-0.1533,-0.1531,-0.1501,-0.1492,-0.1514,-0.1434,-0.1432,-0.1331,-0.1318,-0.1494,-0.1418,-0.1418,-0.1417,-0.1417,0,-0.1205,-0.1241,-0.1284,-0.136,-0.1374,-0.1408,-0.147,-0.1504,-0.154,-0.1557,-0.1574,-0.157,-0.1572,-0.156,-0.1521,-0.1536,-0.1502,-0.1475,-0.1471,-0.1344,-0.1311,-0.1396,-0.1411,-0.1412,-0.1412,-0.1413,-0.1413,0,-0.1169,-0.1245,-0.1285,-0.1309,-0.1385,-0.1423,-0.1468,-0.1517,-0.1542,-0.1581,-0.1587,-0.1596,-0.1577,-0.1555,-0.1495,-0.1513,-0.1432,-0.1445,-0.1308,-0.1299,-0.1405,-0.1403,-0.1416,-0.1416,-0.1416,-0.1416,-0.1417,0,-0.1148,-0.1186,-0.1276,-0.1295,-0.1358,-0.1416,-0.147,-0.1516,-0.1559,-0.156,-0.1604,-0.1582,-0.1574,-0.1524,-0.1493,-0.1369,-0.1424,-0.1299,-0.127,-0.1426,-0.1428,-0.1402,-0.1401,-0.1414,-0.1414,-0.1415,-0.1415,0,-0.1083,-0.1141,-0.1199,-0.1299,-0.1336,-0.1376,-0.1465,-0.1486,-0.1543,-0.1541,-0.1548,-0.1556,-0.1477,-0.1446,-0.138,-0.1329,-0.1253,-0.1201,-0.1348,-0.133,-0.1134,-0.1137,-0.1044,-0.1039,-0.1035,-0.1032,-0.1029,0,-0.1044,-0.1068,-0.1187,-0.1224,-0.1273,-0.1344,-0.1379,-0.1462,-0.1467,-0.1497,-0.1469,-0.1425,-0.1404,-0.1218,-0.1214,-0.1123,-0.1113,-0.108,-0.1131,-0.1114,-0.1095,-0.1104,-0.1112,-0.1022,-0.1021,-0.102,-0.1019,0,-0.0978,-0.1031,-0.1078,-0.1157,-0.1212,-0.1257,-0.1308,-0.13,-0.1354,-0.1423,-0.1341,-0.1287,-0.1185,-0.112,-0.1042,-0.0993,-0.111,-0.1038,-0.1048,-0.1095,-0.1087,-0.1074,-0.1087,-0.1005,-0.1007,-0.1009,-0.101,0,-0.0928,-0.0949,-0.1017,-0.1078,-0.1137,-0.113,-0.1181,-0.1171,-0.1187,-0.1223,-0.1183,-0.1148,-0.1157,-0.1048,-0.0985,-0.0911,-0.0906,-0.09,-0.0916,-0.0932,-0.0926,-0.0901,-0.0723,0,0,0,0,0,-0.086,-0.0875,-0.0933,-0.0973,-0.1022,-0.1043,-0.1108,-0.1149,-0.1196,-0.1102,-0.114,-0.1044,-0.0941,-0.0939,-0.0831,-0.0918,-0.0903,-0.0791,-0.0906,-0.0928,-0.0944,-0.0947,0,0,0,0,0,0,-0.0811,-0.0855,-0.0893,-0.0863,-0.0859,-0.0881,-0.0907,-0.0949,-0.091,-0.0971,-0.0918,-0.0974,-0.0886,-0.0957,-0.08,-0.0795,-0.0846,-0.0785,-0.0783,-0.0919,-0.0934,-0.0947,-0.0955,0,0,0,0,0]},{"header":{"parameterUnit":"m.s-1","parameterCategory":2,"la1":30.2991,"la2":30.254,"lo1":-89.0895,"lo2":-89.0444,"dy":0.0017,"dx":0.0017,"nx":28,"ny":28,"refTime":"2023-10-17T21:00:00:Z","depth":"4","parameterNumber":3,"parameterNumberName":"V-component_of_CURRENTS"},"data":[0,0,0,0,0,0,0,0,0,0,0,0,0,0,0,0,0,0,0,0,0,0,0,0,0,0,0,0,0,0,0,0,0,0,0,0,0,0,0,0,0,0,0,0,0,0,0,0,0,0,0,0,0,0,0,0,0,0,-0.051,-0.051,0,-0.0473,-0.0472,-0.0471,-0.0451,-0.0451,-0.0452,-0.0452,-0.0405,-0.0404,-0.0402,0,0,0,0,0,0,0,0,0,0,0,0,0,-0.0498,-0.0498,-0.051,-0.051,-0.051,-0.0473,-0.0472,-0.0471,-0.0451,-0.0451,-0.0452,-0.0452,-0.0406,-0.0404,-0.0402,0,0,0,0,0,0,0,0,0,0,0,0,0,-0.0483,-0.0499,-0.051,-0.0498,-0.0497,-0.0473,-0.0472,-0.0471,-0.0451,-0.0451,-0.0452,-0.0452,-0.0406,-0.0404,-0.0402,-0.0378,0,0,-0.0395,-0.0394,0,0,0,0,0,0,0,0,-0.0484,-0.0483,-0.05,-0.0499,-0.0498,-0.0471,-0.0451,-0.0441,-0.0451,-0.0464,-0.0452,-0.0453,-0.0429,-0.0425,-0.0411,-0.0376,-0.0374,-0.0395,-0.0393,-0.0392,-0.0392,0,0,0,0,0,0,0,-0.0485,-0.0484,-0.0491,-0.05,-0.0499,-0.0473,-0.0471,-0.0448,-0.0441,-0.0463,-0.0462,-0.0465,-0.0428,-0.0413,-0.0409,-0.0373,-0.0395,-0.0393,-0.0391,-0.039,-0.0306,-0.0306,0,0,0,0,0,0,-0.0501,-0.0485,-0.0492,-0.049,-0.0497,-0.0473,-0.0471,-0.0476,-0.0441,-0.0438,-0.0464,-0.0464,-0.0417,-0.0412,-0.0408,-0.0367,-0.0392,-0.039,-0.0389,-0.0307,-0.0306,-0.0305,0,0,0,0,0,0,-0.0501,-0.0502,-0.0494,-0.049,-0.0488,-0.0474,-0.0478,-0.0475,-0.0469,-0.0443,-0.0439,-0.0464,-0.0417,-0.0411,-0.0385,-0.0366,-0.0389,-0.0387,-0.0308,-0.0307,-0.0306,-0.0292,0,0,0,0,0,0,-0.05,-0.0502,-0.051,-0.0491,-0.0489,-0.0486,-0.0478,-0.0474,-0.0471,-0.0471,-0.0441,-0.0437,-0.0417,-0.0388,-0.0382,-0.0363,-0.0385,-0.0309,-0.0308,-0.0306,-0.0294,-0.0291,-0.0288,0,0,0,0,0,-0.05,-0.0507,-0.051,-0.0511,-0.05,-0.0486,-0.0482,-0.047,-0.0471,-0.0467,-0.0442,-0.0438,-0.0374,-0.0385,-0.0379,-0.0358,-0.031,-0.0308,-0.0306,-0.0295,-0.0291,-0.0288,0,0,0,0,0,0,-0.0507,-0.0506,-0.0508,-0.0516,-0.0507,-0.0484,-0.0482,-0.0476,-0.0452,-0.0451,-0.0428,-0.0421,-0.039,-0.0378,-0.0391,-0.033,-0.0341,-0.0338,-0.0335,-0.0331,-0.0328,-0.0329,-0.0383,0,0,0,0,0,-0.0514,-0.0523,-0.0512,-0.0522,-0.0517,-0.0502,-0.0496,-0.0487,-0.0467,-0.0457,-0.0439,-0.0411,-0.0375,-0.0358,-0.0332,-0.0299,-0.0282,-0.0282,-0.0279,-0.0277,-0.0272,-0.0218,-0.021,-0.0299,-0.0299,-0.0299,0,0,-0.0523,-0.0524,-0.053,-0.0525,-0.0516,-0.0498,-0.0498,-0.0491,-0.0471,-0.0455,-0.0428,-0.0406,-0.0366,-0.0325,-0.031,-0.0313,-0.0245,-0.0274,-0.0273,-0.0269,-0.0215,-0.0207,-0.0199,-0.0298,-0.0298,-0.0298,0,0,-0.0533,-0.0542,-0.0545,-0.0533,-0.0523,-0.0507,-0.0509,-0.0489,-0.0475,-0.0446,-0.0424,-0.0388,-0.0349,-0.0305,-0.0278,-0.0245,-0.0235,-0.0245,-0.0224,-0.0171,-0.0163,-0.0156,-0.0136,-0.0127,-0.0238,-0.0238,-0.0238,0,-0.0541,-0.0544,-0.0543,-0.0531,-0.0523,-0.0512,-0.0499,-0.0475,-0.045,-0.0432,-0.0438,-0.0357,-0.033,-0.0258,-0.0244,-0.0236,-0.0221,-0.024,-0.0167,-0.016,-0.0152,-0.0133,-0.0123,-0.0237,-0.0237,-0.0237,-0.0238,0,-0.0542,-0.0541,-0.054,-0.0523,-0.0511,-0.0501,-0.0471,-0.0457,-0.0444,-0.0416,-0.0363,-0.032,-0.0272,-0.0253,-0.0236,-0.0168,-0.018,-0.0174,-0.0177,-0.0143,-0.0125,-0.0115,-0.0236,-0.0236,-0.0237,-0.0237,0,0,-0.0564,-0.0545,-0.0545,-0.054,-0.0506,-0.0501,-0.0462,-0.0424,-0.0401,-0.0363,-0.0325,-0.025,-0.0238,-0.0207,-0.018,-0.013,-0.0069,-0.0133,-0.0131,-0.0116,0.0024,0.0006,0.0014,-0.0052,-0.0049,-0.0048,0.0011,0,-0.0564,-0.0553,-0.0536,-0.0521,-0.051,-0.0482,-0.045,-0.0412,-0.0378,-0.0339,-0.0276,-0.0233,-0.0215,-0.0198,-0.0139,-0.0091,-0.004,-0.0087,-0.001,-0.0008,-0.0029,0.0027,-0.0041,0.0018,0.002,0.0022,0.0023,0,-0.0563,-0.0559,-0.0549,-0.0526,-0.0518,-0.0505,-0.0465,-0.0433,-0.0361,-0.0332,-0.0269,-0.023,-0.015,-0.0148,-0.003,-0.0065,-0.0018,0.0021,0.0025,0.0012,-0.0006,-0.0019,0.0041,0.004,0.0038,0.0037,0.0036,0,-0.0587,-0.0567,-0.0568,-0.0558,-0.0524,-0.0518,-0.05,-0.0438,-0.0413,-0.0335,-0.0309,-0.0209,-0.0171,-0.0085,-0.0007,-0.0017,0.0111,0.0109,0.0141,0.0138,0.0128,0.012,0.0203,0.0203,0.0203,0.0203,0.0203,0,-0.0587,-0.0589,-0.0588,-0.0587,-0.0591,-0.0554,-0.0543,-0.0503,-0.0444,-0.0409,-0.0321,-0.0272,-0.0152,-0.0069,0.0002,0.0097,0.0122,0.0157,0.0166,0.0129,0.012,0.0134,0.0125,0.0205,0.0205,0.0204,0.0204,0,-0.0602,-0.06,-0.0609,-0.0599,-0.0605,-0.0612,-0.0597,-0.0581,-0.0515,-0.0469,-0.0447,-0.0317,-0.0201,-0.0087,0.0052,0.01,0.0196,0.0224,0.0161,0.0162,0.0182,0.0173,0.0269,0.0269,0.027,0.027,0.027,0,-0.0603,-0.061,-0.0638,-0.0663,-0.0667,-0.0678,-0.0683,-0.0631,-0.0606,-0.0496,-0.0472,-0.0344,-0.0253,-0.0069,0.005,0.0194,0.0212,0.0248,0.0239,0.0197,0.0196,0.0186,0.0178,0.027,0.027,0.027,0.027,0,-0.0604,-0.0628,-0.0641,-0.0699,-0.073,-0.0749,-0.0747,-0.073,-0.0654,-0.0606,-0.0481,-0.036,-0.0223,-0.0071,0.0045,0.0146,0.0219,0.025,0.025,0.0242,0.0198,0.0195,0.0186,0.0271,0.027,0.027,0.027,0,-0.0616,-0.0636,-0.0674,-0.0721,-0.0772,-0.0794,-0.0789,-0.0744,-0.0706,-0.0574,-0.054,-0.037,-0.0267,-0.0095,0.0009,0.0112,0.0136,0.0151,0.0157,0.0158,0.0109,0.0037,0.0082,0,0,0,0,0,-0.0619,-0.0646,-0.0691,-0.0743,-0.0798,-0.0823,-0.0815,-0.0794,-0.0726,-0.0649,-0.0586,-0.0453,-0.0253,-0.0153,-0.0053,-0.0002,0.0139,0.0116,0.0155,0.0273,0.0273,0.0233,0,0,0,0,0,0,-0.0626,-0.0667,-0.0686,-0.0755,-0.0796,-0.0843,-0.084,-0.0796,-0.0734,-0.0652,-0.054,-0.0457,-0.0261,-0.0319,-0.0061,-0.0026,0.0006,0.022,0.0221,0.0273,0.0273,0.0272,0.0232,0,0,0,0,0]}]]